owner,sensor,date,latitude,longitude,vertical_datum,sea_water_practical_salinity,qcFlag 
DISL,ioos:station:DISL:KATA:1,2011-11-01T00:00:00Z,30.2583,-88.2131,4.329,25.25,1111122 
DISL,ioos:station:DISL:KATA:1,2011-11-01T00:30:00Z,30.2583,-88.2131,4.358,25.39,1111122 
DISL,ioos:station:DISL:KATA:1,2011-11-01T01:00:00Z,30.2583,-88.2131,4.392,25.48,1111122 
DISL,ioos:station:DISL:KATA:1,2011-11-01T01:30:00Z,30.2583,-88.2131,4.418,25.63,1111122 
DISL,ioos:station:DISL:KATA:1,2011-11-01T02:00:00Z,30.2583,-88.2131,4.458,25.62,1111122 
DISL,ioos:station:DISL:KATA:1,2011-11-01T02:30:00Z,30.2583,-88.2131,4.483,26.85,1111122 
DISL,ioos:station:DISL:KATA:1,2011-11-01T03:00:00Z,30.2583,-88.2131,4.51,27.81,1111122 
DISL,ioos:station:DISL:KATA:1,2011-11-01T03:30:00Z,30.2583,-88.2131,4.534,28.26,1111122 
DISL,ioos:station:DISL:KATA:1,2011-11-01T04:00:00Z,30.2583,-88.2131,4.559,28.68,1111122 
DISL,ioos:station:DISL:KATA:1,2011-11-01T04:30:00Z,30.2583,-88.2131,4.569,29.41,1111122 
DISL,ioos:station:DISL:KATA:1,2011-11-01T05:00:00Z,30.2583,-88.2131,4.585,29.52,1111122 
DISL,ioos:station:DISL:KATA:1,2011-11-01T05:30:00Z,30.2583,-88.2131,4.597,29.64,1111122 
DISL,ioos:station:DISL:KATA:1,2011-11-01T06:00:00Z,30.2583,-88.2131,4.596,29.61,1111122 
DISL,ioos:station:DISL:KATA:1,2011-11-01T06:30:00Z,30.2583,-88.2131,4.619,29.66,1111122 
DISL,ioos:station:DISL:KATA:1,2011-11-01T07:00:00Z,30.2583,-88.2131,4.62,28.7,1111122 
DISL,ioos:station:DISL:KATA:1,2011-11-01T07:30:00Z,30.2583,-88.2131,4.607,28.42,1111122 
DISL,ioos:station:DISL:KATA:1,2011-11-01T08:00:00Z,30.2583,-88.2131,4.587,29.51,1111122 
DISL,ioos:station:DISL:KATA:1,2011-11-01T08:30:00Z,30.2583,-88.2131,4.574,28.76,1111122 
DISL,ioos:station:DISL:KATA:1,2011-11-01T09:00:00Z,30.2583,-88.2131,4.545,29.57,1111122 
DISL,ioos:station:DISL:KATA:1,2011-11-01T09:30:00Z,30.2583,-88.2131,4.522,29.63,1111122 
DISL,ioos:station:DISL:KATA:1,2011-11-01T10:00:00Z,30.2583,-88.2131,4.506,29.64,1111122 
DISL,ioos:station:DISL:KATA:1,2011-11-01T10:30:00Z,30.2583,-88.2131,4.472,29.61,1111122 
DISL,ioos:station:DISL:KATA:1,2011-11-01T11:00:00Z,30.2583,-88.2131,4.445,29.65,1111122 
DISL,ioos:station:DISL:KATA:1,2011-11-01T11:30:00Z,30.2583,-88.2131,4.412,29.64,1111122 
DISL,ioos:station:DISL:KATA:1,2011-11-01T12:00:00Z,30.2583,-88.2131,4.375,29.65,1111122 
DISL,ioos:station:DISL:KATA:1,2011-11-01T12:30:00Z,30.2583,-88.2131,4.34,29.63,1111122 
DISL,ioos:station:DISL:KATA:1,2011-11-01T13:00:00Z,30.2583,-88.2131,4.302,29.61,1111122 
DISL,ioos:station:DISL:KATA:1,2011-11-01T13:30:00Z,30.2583,-88.2131,4.263,29.54,1111122 
DISL,ioos:station:DISL:KATA:1,2011-11-01T14:00:00Z,30.2583,-88.2131,4.223,29.54,1111122 
DISL,ioos:station:DISL:KATA:1,2011-11-01T14:30:00Z,30.2583,-88.2131,4.188,29.46,1111122 
DISL,ioos:station:DISL:KATA:1,2011-11-01T15:00:00Z,30.2583,-88.2131,4.155,29.52,1111122 
DISL,ioos:station:DISL:KATA:1,2011-11-01T15:30:00Z,30.2583,-88.2131,4.127,29.56,1111122 
DISL,ioos:station:DISL:KATA:1,2011-11-01T16:00:00Z,30.2583,-88.2131,4.107,29.55,1111122 
DISL,ioos:station:DISL:KATA:1,2011-11-01T16:30:00Z,30.2583,-88.2131,4.094,29.56,1111122 
DISL,ioos:station:DISL:KATA:1,2011-11-01T17:00:00Z,30.2583,-88.2131,4.09,29.51,1111122 
DISL,ioos:station:DISL:KATA:1,2011-11-01T17:30:00Z,30.2583,-88.2131,4.097,29.38,1111122 
DISL,ioos:station:DISL:KATA:1,2011-11-01T18:00:00Z,30.2583,-88.2131,4.099,29.35,1111122 
DISL,ioos:station:DISL:KATA:1,2011-11-01T18:30:00Z,30.2583,-88.2131,4.106,29.42,1111122 
DISL,ioos:station:DISL:KATA:1,2011-11-01T19:00:00Z,30.2583,-88.2131,4.119,29.51,1111122 
DISL,ioos:station:DISL:KATA:1,2011-11-01T19:30:00Z,30.2583,-88.2131,4.134,29.7,1111122 
DISL,ioos:station:DISL:KATA:1,2011-11-01T20:00:00Z,30.2583,-88.2131,4.149,29.82,1111122 
DISL,ioos:station:DISL:KATA:1,2011-11-01T20:30:00Z,30.2583,-88.2131,4.161,29.85,1111122 
DISL,ioos:station:DISL:KATA:1,2011-11-01T21:00:00Z,30.2583,-88.2131,4.177,29.87,1111122 
DISL,ioos:station:DISL:KATA:1,2011-11-01T21:30:00Z,30.2583,-88.2131,4.194,29.85,1111122 
DISL,ioos:station:DISL:KATA:1,2011-11-01T22:00:00Z,30.2583,-88.2131,4.22,29.83,1111122 
DISL,ioos:station:DISL:KATA:1,2011-11-01T22:30:00Z,30.2583,-88.2131,4.25,29.76,1111122 
DISL,ioos:station:DISL:KATA:1,2011-11-01T23:00:00Z,30.2583,-88.2131,4.275,29.68,1111122 
DISL,ioos:station:DISL:KATA:1,2011-11-01T23:30:00Z,30.2583,-88.2131,4.3,29.61,1111122 
DISL,ioos:station:DISL:KATA:1,2011-11-02T00:00:00Z,30.2583,-88.2131,4.325,29.51,1111122 
DISL,ioos:station:DISL:KATA:1,2011-11-02T00:30:00Z,30.2583,-88.2131,4.356,29.34,1111122 
DISL,ioos:station:DISL:KATA:1,2011-11-02T01:00:00Z,30.2583,-88.2131,4.388,29.01,1111122 
DISL,ioos:station:DISL:KATA:1,2011-11-02T01:30:00Z,30.2583,-88.2131,4.418,28.8,1111122 
DISL,ioos:station:DISL:KATA:1,2011-11-02T02:00:00Z,30.2583,-88.2131,4.458,28.42,1111122 
DISL,ioos:station:DISL:KATA:1,2011-11-02T02:30:00Z,30.2583,-88.2131,4.49,27.91,1111122 
DISL,ioos:station:DISL:KATA:1,2011-11-02T03:00:00Z,30.2583,-88.2131,4.516,27.72,1111122 
DISL,ioos:station:DISL:KATA:1,2011-11-02T03:30:00Z,30.2583,-88.2131,4.543,27.59,1111122 
DISL,ioos:station:DISL:KATA:1,2011-11-02T04:00:00Z,30.2583,-88.2131,4.562,27.45,1111122 
DISL,ioos:station:DISL:KATA:1,2011-11-02T04:30:00Z,30.2583,-88.2131,4.579,27.34,1111122 
DISL,ioos:station:DISL:KATA:1,2011-11-02T05:00:00Z,30.2583,-88.2131,4.59,27.48,1111122 
DISL,ioos:station:DISL:KATA:1,2011-11-02T05:30:00Z,30.2583,-88.2131,4.601,27.63,1111122 
DISL,ioos:station:DISL:KATA:1,2011-11-02T06:00:00Z,30.2583,-88.2131,4.609,27.85,1111122 
DISL,ioos:station:DISL:KATA:1,2011-11-02T06:30:00Z,30.2583,-88.2131,4.62,27.93,1111122 
DISL,ioos:station:DISL:KATA:1,2011-11-02T07:00:00Z,30.2583,-88.2131,4.626,27.97,1111122 
DISL,ioos:station:DISL:KATA:1,2011-11-02T07:30:00Z,30.2583,-88.2131,4.628,28.1,1111122 
DISL,ioos:station:DISL:KATA:1,2011-11-02T08:00:00Z,30.2583,-88.2131,4.616,28.16,1111122 
DISL,ioos:station:DISL:KATA:1,2011-11-02T08:30:00Z,30.2583,-88.2131,4.6,28.18,1111122 
DISL,ioos:station:DISL:KATA:1,2011-11-02T09:00:00Z,30.2583,-88.2131,4.582,28.22,1111122 
DISL,ioos:station:DISL:KATA:1,2011-11-02T09:30:00Z,30.2583,-88.2131,4.561,28.28,1111122 
DISL,ioos:station:DISL:KATA:1,2011-11-02T10:00:00Z,30.2583,-88.2131,4.537,28.38,1111122 
DISL,ioos:station:DISL:KATA:1,2011-11-02T10:30:00Z,30.2583,-88.2131,4.518,28.41,1111122 
DISL,ioos:station:DISL:KATA:1,2011-11-02T11:00:00Z,30.2583,-88.2131,4.494,28.42,1111122 
DISL,ioos:station:DISL:KATA:1,2011-11-02T11:30:00Z,30.2583,-88.2131,4.458,28.43,1111122 
DISL,ioos:station:DISL:KATA:1,2011-11-02T12:00:00Z,30.2583,-88.2131,4.427,28.43,1111122 
DISL,ioos:station:DISL:KATA:1,2011-11-02T12:30:00Z,30.2583,-88.2131,4.399,28.37,1111122 
DISL,ioos:station:DISL:KATA:1,2011-11-02T13:00:00Z,30.2583,-88.2131,4.357,28.4,1111122 
DISL,ioos:station:DISL:KATA:1,2011-11-02T13:30:00Z,30.2583,-88.2131,4.315,28.3,1111122 
DISL,ioos:station:DISL:KATA:1,2011-11-02T14:00:00Z,30.2583,-88.2131,4.284,28.16,1111122 
DISL,ioos:station:DISL:KATA:1,2011-11-02T14:30:00Z,30.2583,-88.2131,4.263,27.31,1111122 
DISL,ioos:station:DISL:KATA:1,2011-11-02T15:00:00Z,30.2583,-88.2131,4.225,26.81,1111122 
DISL,ioos:station:DISL:KATA:1,2011-11-02T15:30:00Z,30.2583,-88.2131,4.201,26.34,1111122 
DISL,ioos:station:DISL:KATA:1,2011-11-02T16:00:00Z,30.2583,-88.2131,4.181,26.01,1111122 
DISL,ioos:station:DISL:KATA:1,2011-11-02T16:30:00Z,30.2583,-88.2131,4.168,26.46,1111122 
DISL,ioos:station:DISL:KATA:1,2011-11-02T17:00:00Z,30.2583,-88.2131,4.15,27.7,1111122 
DISL,ioos:station:DISL:KATA:1,2011-11-02T17:30:00Z,30.2583,-88.2131,4.146,27.5,1111122 
DISL,ioos:station:DISL:KATA:1,2011-11-02T18:00:00Z,30.2583,-88.2131,4.144,27.41,1111122 
DISL,ioos:station:DISL:KATA:1,2011-11-02T18:30:00Z,30.2583,-88.2131,4.147,27.65,1111122 
DISL,ioos:station:DISL:KATA:1,2011-11-02T19:00:00Z,30.2583,-88.2131,4.156,27.06,1111122 
DISL,ioos:station:DISL:KATA:1,2011-11-02T19:30:00Z,30.2583,-88.2131,4.168,26.63,1111122 
DISL,ioos:station:DISL:KATA:1,2011-11-02T20:00:00Z,30.2583,-88.2131,4.184,26.04,1111122 
DISL,ioos:station:DISL:KATA:1,2011-11-02T20:30:00Z,30.2583,-88.2131,4.195,25.7,1111122 
DISL,ioos:station:DISL:KATA:1,2011-11-02T21:00:00Z,30.2583,-88.2131,4.209,26.07,1111122 
DISL,ioos:station:DISL:KATA:1,2011-11-02T21:30:00Z,30.2583,-88.2131,4.223,25.9,1111122 
DISL,ioos:station:DISL:KATA:1,2011-11-02T22:00:00Z,30.2583,-88.2131,4.244,25.52,1111122 
DISL,ioos:station:DISL:KATA:1,2011-11-02T22:30:00Z,30.2583,-88.2131,4.27,25.41,1111122 
DISL,ioos:station:DISL:KATA:1,2011-11-02T23:00:00Z,30.2583,-88.2131,4.288,25.49,1111122 
DISL,ioos:station:DISL:KATA:1,2011-11-02T23:30:00Z,30.2583,-88.2131,4.3,25.41,1111122 
DISL,ioos:station:DISL:KATA:1,2011-11-03T00:00:00Z,30.2583,-88.2131,4.326,25.42,1111122 
DISL,ioos:station:DISL:KATA:1,2011-11-03T00:30:00Z,30.2583,-88.2131,4.346,25.43,1111122 
DISL,ioos:station:DISL:KATA:1,2011-11-03T01:00:00Z,30.2583,-88.2131,4.378,25.41,1111122 
DISL,ioos:station:DISL:KATA:1,2011-11-03T01:30:00Z,30.2583,-88.2131,4.414,25.43,1111122 
DISL,ioos:station:DISL:KATA:1,2011-11-03T02:00:00Z,30.2583,-88.2131,4.443,25.59,1111122 
DISL,ioos:station:DISL:KATA:1,2011-11-03T02:30:00Z,30.2583,-88.2131,4.459,25.7,1111122 
DISL,ioos:station:DISL:KATA:1,2011-11-03T03:00:00Z,30.2583,-88.2131,4.477,25.86,1111122 
DISL,ioos:station:DISL:KATA:1,2011-11-03T03:30:00Z,30.2583,-88.2131,4.496,25.89,1111122 
DISL,ioos:station:DISL:KATA:1,2011-11-03T04:00:00Z,30.2583,-88.2131,4.522,25.97,1111122 
DISL,ioos:station:DISL:KATA:1,2011-11-03T04:30:00Z,30.2583,-88.2131,4.537,26.18,1111122 
DISL,ioos:station:DISL:KATA:1,2011-11-03T05:00:00Z,30.2583,-88.2131,4.556,26.37,1111122 
DISL,ioos:station:DISL:KATA:1,2011-11-03T05:30:00Z,30.2583,-88.2131,4.568,26.6,1111122 
DISL,ioos:station:DISL:KATA:1,2011-11-03T06:00:00Z,30.2583,-88.2131,4.593,26.67,1111122 
DISL,ioos:station:DISL:KATA:1,2011-11-03T06:30:00Z,30.2583,-88.2131,4.618,26.79,1111122 
DISL,ioos:station:DISL:KATA:1,2011-11-03T07:00:00Z,30.2583,-88.2131,4.644,26.87,1111122 
DISL,ioos:station:DISL:KATA:1,2011-11-03T07:30:00Z,30.2583,-88.2131,4.662,26.93,1111122 
DISL,ioos:station:DISL:KATA:1,2011-11-03T08:00:00Z,30.2583,-88.2131,4.673,27.22,1111122 
DISL,ioos:station:DISL:KATA:1,2011-11-03T08:30:00Z,30.2583,-88.2131,4.685,27.08,1111122 
DISL,ioos:station:DISL:KATA:1,2011-11-03T09:00:00Z,30.2583,-88.2131,4.67,27.25,1111122 
DISL,ioos:station:DISL:KATA:1,2011-11-03T09:30:00Z,30.2583,-88.2131,4.661,27.27,1111122 
DISL,ioos:station:DISL:KATA:1,2011-11-03T10:00:00Z,30.2583,-88.2131,4.623,27.3,1111122 
DISL,ioos:station:DISL:KATA:1,2011-11-03T10:30:00Z,30.2583,-88.2131,4.587,27.36,1111122 
DISL,ioos:station:DISL:KATA:1,2011-11-03T11:00:00Z,30.2583,-88.2131,4.563,27.32,1111122 
DISL,ioos:station:DISL:KATA:1,2011-11-03T11:30:00Z,30.2583,-88.2131,4.564,27.42,1111122 
DISL,ioos:station:DISL:KATA:1,2011-11-03T12:00:00Z,30.2583,-88.2131,4.554,27.41,1111122 
DISL,ioos:station:DISL:KATA:1,2011-11-03T12:30:00Z,30.2583,-88.2131,4.534,27.37,1111122 
DISL,ioos:station:DISL:KATA:1,2011-11-03T13:00:00Z,30.2583,-88.2131,4.515,27.36,1111122 
DISL,ioos:station:DISL:KATA:1,2011-11-03T13:30:00Z,30.2583,-88.2131,4.506,27.34,1111122 
DISL,ioos:station:DISL:KATA:1,2011-11-03T14:00:00Z,30.2583,-88.2131,4.497,27.28,1111122 
DISL,ioos:station:DISL:KATA:1,2011-11-03T14:30:00Z,30.2583,-88.2131,4.48,27.26,1111122 
DISL,ioos:station:DISL:KATA:1,2011-11-03T15:00:00Z,30.2583,-88.2131,4.467,27.12,1111122 
DISL,ioos:station:DISL:KATA:1,2011-11-03T15:30:00Z,30.2583,-88.2131,4.443,26.96,1111122 
DISL,ioos:station:DISL:KATA:1,2011-11-03T16:00:00Z,30.2583,-88.2131,4.436,27.0,1111122 
DISL,ioos:station:DISL:KATA:1,2011-11-03T16:30:00Z,30.2583,-88.2131,4.424,26.88,1111122 
DISL,ioos:station:DISL:KATA:1,2011-11-03T17:00:00Z,30.2583,-88.2131,4.43,26.75,1111122 
DISL,ioos:station:DISL:KATA:1,2011-11-03T17:30:00Z,30.2583,-88.2131,4.415,26.73,1111122 
DISL,ioos:station:DISL:KATA:1,2011-11-03T18:00:00Z,30.2583,-88.2131,4.397,26.7,1111122 
DISL,ioos:station:DISL:KATA:1,2011-11-03T18:30:00Z,30.2583,-88.2131,4.373,26.67,1111122 
DISL,ioos:station:DISL:KATA:1,2011-11-03T19:00:00Z,30.2583,-88.2131,4.377,26.68,1111122 
DISL,ioos:station:DISL:KATA:1,2011-11-03T19:30:00Z,30.2583,-88.2131,4.385,26.7,1111122 
DISL,ioos:station:DISL:KATA:1,2011-11-03T20:00:00Z,30.2583,-88.2131,4.378,27.29,1111122 
DISL,ioos:station:DISL:KATA:1,2011-11-03T20:30:00Z,30.2583,-88.2131,4.378,27.41,1111122 
DISL,ioos:station:DISL:KATA:1,2011-11-03T21:00:00Z,30.2583,-88.2131,4.434,27.43,1111122 
DISL,ioos:station:DISL:KATA:1,2011-11-03T21:30:00Z,30.2583,-88.2131,4.397,27.34,1111122 
DISL,ioos:station:DISL:KATA:1,2011-11-03T22:00:00Z,30.2583,-88.2131,4.343,26.88,1111122 
DISL,ioos:station:DISL:KATA:1,2011-11-03T22:30:00Z,30.2583,-88.2131,4.291,26.65,1111122 
DISL,ioos:station:DISL:KATA:1,2011-11-03T23:00:00Z,30.2583,-88.2131,4.273,26.46,1111122 
DISL,ioos:station:DISL:KATA:1,2011-11-03T23:30:00Z,30.2583,-88.2131,4.239,26.27,1111122 
DISL,ioos:station:DISL:KATA:1,2011-11-04T00:00:00Z,30.2583,-88.2131,4.248,26.05,1111122 
DISL,ioos:station:DISL:KATA:1,2011-11-04T00:30:00Z,30.2583,-88.2131,4.289,25.89,1111122 
DISL,ioos:station:DISL:KATA:1,2011-11-04T01:00:00Z,30.2583,-88.2131,4.218,25.78,1111122 
DISL,ioos:station:DISL:KATA:1,2011-11-04T01:30:00Z,30.2583,-88.2131,4.322,25.69,1111122 
DISL,ioos:station:DISL:KATA:1,2011-11-04T02:00:00Z,30.2583,-88.2131,4.334,25.66,1111122 
DISL,ioos:station:DISL:KATA:1,2011-11-04T02:30:00Z,30.2583,-88.2131,4.342,25.55,1111122 
DISL,ioos:station:DISL:KATA:1,2011-11-04T03:00:00Z,30.2583,-88.2131,4.325,25.48,1111122 
DISL,ioos:station:DISL:KATA:1,2011-11-04T03:30:00Z,30.2583,-88.2131,4.313,25.38,1111122 
DISL,ioos:station:DISL:KATA:1,2011-11-04T04:00:00Z,30.2583,-88.2131,4.287,25.32,1111122 
DISL,ioos:station:DISL:KATA:1,2011-11-04T04:30:00Z,30.2583,-88.2131,4.291,26.19,1111122 
DISL,ioos:station:DISL:KATA:1,2011-11-04T05:00:00Z,30.2583,-88.2131,4.238,26.22,1111122 
DISL,ioos:station:DISL:KATA:1,2011-11-04T05:30:00Z,30.2583,-88.2131,4.246,26.18,1111122 
DISL,ioos:station:DISL:KATA:1,2011-11-04T06:00:00Z,30.2583,-88.2131,4.247,26.59,1111122 
DISL,ioos:station:DISL:KATA:1,2011-11-04T06:30:00Z,30.2583,-88.2131,4.26,26.92,1111122 
DISL,ioos:station:DISL:KATA:1,2011-11-04T07:00:00Z,30.2583,-88.2131,4.311,26.88,1111122 
DISL,ioos:station:DISL:KATA:1,2011-11-04T07:30:00Z,30.2583,-88.2131,4.337,26.77,1111122 
DISL,ioos:station:DISL:KATA:1,2011-11-04T08:00:00Z,30.2583,-88.2131,4.347,26.51,1111122 
DISL,ioos:station:DISL:KATA:1,2011-11-04T08:30:00Z,30.2583,-88.2131,4.37,25.97,1111122 
DISL,ioos:station:DISL:KATA:1,2011-11-04T09:00:00Z,30.2583,-88.2131,4.399,26.48,1111122 
DISL,ioos:station:DISL:KATA:1,2011-11-04T09:30:00Z,30.2583,-88.2131,4.412,26.95,1111122 
DISL,ioos:station:DISL:KATA:1,2011-11-04T10:00:00Z,30.2583,-88.2131,4.421,26.78,1111122 
DISL,ioos:station:DISL:KATA:1,2011-11-04T10:30:00Z,30.2583,-88.2131,4.435,26.83,1111122 
DISL,ioos:station:DISL:KATA:1,2011-11-04T11:00:00Z,30.2583,-88.2131,4.419,26.91,1111122 
DISL,ioos:station:DISL:KATA:1,2011-11-04T11:30:00Z,30.2583,-88.2131,4.396,26.94,1111122 
DISL,ioos:station:DISL:KATA:1,2011-11-04T12:00:00Z,30.2583,-88.2131,4.37,26.97,1111122 
DISL,ioos:station:DISL:KATA:1,2011-11-04T12:30:00Z,30.2583,-88.2131,4.34,27.27,1111122 
DISL,ioos:station:DISL:KATA:1,2011-11-04T13:00:00Z,30.2583,-88.2131,4.306,27.48,1111122 
DISL,ioos:station:DISL:KATA:1,2011-11-04T13:30:00Z,30.2583,-88.2131,4.304,27.51,1111122 
DISL,ioos:station:DISL:KATA:1,2011-11-04T14:00:00Z,30.2583,-88.2131,4.332,27.52,1111122 
DISL,ioos:station:DISL:KATA:1,2011-11-04T14:30:00Z,30.2583,-88.2131,4.361,27.54,1111122 
DISL,ioos:station:DISL:KATA:1,2011-11-04T15:00:00Z,30.2583,-88.2131,4.373,27.49,1111122 
DISL,ioos:station:DISL:KATA:1,2011-11-04T15:30:00Z,30.2583,-88.2131,4.384,27.42,1111122 
DISL,ioos:station:DISL:KATA:1,2011-11-04T16:00:00Z,30.2583,-88.2131,4.365,27.41,1111122 
DISL,ioos:station:DISL:KATA:1,2011-11-04T16:30:00Z,30.2583,-88.2131,4.358,27.37,1111122 
DISL,ioos:station:DISL:KATA:1,2011-11-04T17:00:00Z,30.2583,-88.2131,4.328,27.2,1111122 
DISL,ioos:station:DISL:KATA:1,2011-11-04T17:30:00Z,30.2583,-88.2131,4.301,26.93,1111122 
DISL,ioos:station:DISL:KATA:1,2011-11-04T18:00:00Z,30.2583,-88.2131,4.275,26.79,1111122 
DISL,ioos:station:DISL:KATA:1,2011-11-04T18:30:00Z,30.2583,-88.2131,4.276,26.72,1111122 
DISL,ioos:station:DISL:KATA:1,2011-11-04T19:00:00Z,30.2583,-88.2131,4.282,26.64,1111122 
DISL,ioos:station:DISL:KATA:1,2011-11-04T19:30:00Z,30.2583,-88.2131,4.297,26.98,1111122 
DISL,ioos:station:DISL:KATA:1,2011-11-04T20:00:00Z,30.2583,-88.2131,4.282,27.02,1111122 
DISL,ioos:station:DISL:KATA:1,2011-11-04T20:30:00Z,30.2583,-88.2131,4.281,27.05,1111122 
DISL,ioos:station:DISL:KATA:1,2011-11-04T21:00:00Z,30.2583,-88.2131,4.298,27.01,1111122 
DISL,ioos:station:DISL:KATA:1,2011-11-04T21:30:00Z,30.2583,-88.2131,4.301,26.9,1111122 
DISL,ioos:station:DISL:KATA:1,2011-11-04T22:00:00Z,30.2583,-88.2131,4.315,26.97,1111122 
DISL,ioos:station:DISL:KATA:1,2011-11-04T22:30:00Z,30.2583,-88.2131,4.338,27.42,1111122 
DISL,ioos:station:DISL:KATA:1,2011-11-04T23:00:00Z,30.2583,-88.2131,4.345,27.58,1111122 
DISL,ioos:station:DISL:KATA:1,2011-11-04T23:30:00Z,30.2583,-88.2131,4.349,27.61,1111122 
DISL,ioos:station:DISL:KATA:1,2011-11-05T00:00:00Z,30.2583,-88.2131,4.33,27.46,1111122 
DISL,ioos:station:DISL:KATA:1,2011-11-05T00:30:00Z,30.2583,-88.2131,4.337,27.35,1111122 
DISL,ioos:station:DISL:KATA:1,2011-11-05T01:00:00Z,30.2583,-88.2131,4.333,27.27,1111122 
DISL,ioos:station:DISL:KATA:1,2011-11-05T01:30:00Z,30.2583,-88.2131,4.325,27.25,1111122 
DISL,ioos:station:DISL:KATA:1,2011-11-05T02:00:00Z,30.2583,-88.2131,4.326,27.1,1111122 
DISL,ioos:station:DISL:KATA:1,2011-11-05T02:30:00Z,30.2583,-88.2131,4.344,26.97,1111122 
DISL,ioos:station:DISL:KATA:1,2011-11-05T03:00:00Z,30.2583,-88.2131,4.352,26.99,1111122 
DISL,ioos:station:DISL:KATA:1,2011-11-05T03:30:00Z,30.2583,-88.2131,4.35,26.99,1111122 
DISL,ioos:station:DISL:KATA:1,2011-11-05T04:00:00Z,30.2583,-88.2131,4.345,26.99,1111122 
DISL,ioos:station:DISL:KATA:1,2011-11-05T04:30:00Z,30.2583,-88.2131,4.331,27.05,1111122 
DISL,ioos:station:DISL:KATA:1,2011-11-05T05:00:00Z,30.2583,-88.2131,4.314,27.1,1111122 
DISL,ioos:station:DISL:KATA:1,2011-11-05T05:30:00Z,30.2583,-88.2131,4.289,27.1,1111122 
DISL,ioos:station:DISL:KATA:1,2011-11-05T06:00:00Z,30.2583,-88.2131,4.273,27.1,1111122 
DISL,ioos:station:DISL:KATA:1,2011-11-05T06:30:00Z,30.2583,-88.2131,4.262,27.08,1111122 
DISL,ioos:station:DISL:KATA:1,2011-11-05T07:00:00Z,30.2583,-88.2131,4.266,27.06,1111122 
DISL,ioos:station:DISL:KATA:1,2011-11-05T07:30:00Z,30.2583,-88.2131,4.269,27.0,1111122 
DISL,ioos:station:DISL:KATA:1,2011-11-05T08:00:00Z,30.2583,-88.2131,4.263,26.98,1111122 
DISL,ioos:station:DISL:KATA:1,2011-11-05T08:30:00Z,30.2583,-88.2131,4.254,27.0,1111122 
DISL,ioos:station:DISL:KATA:1,2011-11-05T09:00:00Z,30.2583,-88.2131,4.252,27.0,1111122 
DISL,ioos:station:DISL:KATA:1,2011-11-05T09:30:00Z,30.2583,-88.2131,4.263,26.96,1111122 
DISL,ioos:station:DISL:KATA:1,2011-11-05T10:00:00Z,30.2583,-88.2131,4.278,26.89,1111122 
DISL,ioos:station:DISL:KATA:1,2011-11-05T10:30:00Z,30.2583,-88.2131,4.296,26.86,1111122 
DISL,ioos:station:DISL:KATA:1,2011-11-05T11:00:00Z,30.2583,-88.2131,4.317,26.79,1111122 
DISL,ioos:station:DISL:KATA:1,2011-11-05T11:30:00Z,30.2583,-88.2131,4.331,26.66,1111122 
DISL,ioos:station:DISL:KATA:1,2011-11-05T12:00:00Z,30.2583,-88.2131,4.337,26.55,1111122 
DISL,ioos:station:DISL:KATA:1,2011-11-05T12:30:00Z,30.2583,-88.2131,4.339,26.45,1111122 
DISL,ioos:station:DISL:KATA:1,2011-11-05T13:00:00Z,30.2583,-88.2131,4.339,26.43,1111122 
DISL,ioos:station:DISL:KATA:1,2011-11-05T13:30:00Z,30.2583,-88.2131,4.318,26.34,1111122 
DISL,ioos:station:DISL:KATA:1,2011-11-05T14:00:00Z,30.2583,-88.2131,4.311,26.28,1111122 
DISL,ioos:station:DISL:KATA:1,2011-11-05T14:30:00Z,30.2583,-88.2131,4.318,26.24,1111122 
DISL,ioos:station:DISL:KATA:1,2011-11-05T15:00:00Z,30.2583,-88.2131,4.317,26.22,1111122 
DISL,ioos:station:DISL:KATA:1,2011-11-05T15:30:00Z,30.2583,-88.2131,4.303,26.2,1111122 
DISL,ioos:station:DISL:KATA:1,2011-11-05T16:00:00Z,30.2583,-88.2131,4.291,26.14,1111122 
DISL,ioos:station:DISL:KATA:1,2011-11-05T16:30:00Z,30.2583,-88.2131,4.282,26.06,1111122 
DISL,ioos:station:DISL:KATA:1,2011-11-05T17:00:00Z,30.2583,-88.2131,4.288,26.04,1111122 
DISL,ioos:station:DISL:KATA:1,2011-11-05T17:30:00Z,30.2583,-88.2131,4.301,26.06,1111122 
DISL,ioos:station:DISL:KATA:1,2011-11-05T18:00:00Z,30.2583,-88.2131,4.314,26.11,1111122 
DISL,ioos:station:DISL:KATA:1,2011-11-05T18:30:00Z,30.2583,-88.2131,4.326,26.17,1111122 
DISL,ioos:station:DISL:KATA:1,2011-11-05T19:00:00Z,30.2583,-88.2131,4.333,26.26,1111122 
DISL,ioos:station:DISL:KATA:1,2011-11-05T19:30:00Z,30.2583,-88.2131,4.334,26.35,1111122 
DISL,ioos:station:DISL:KATA:1,2011-11-05T20:00:00Z,30.2583,-88.2131,4.34,26.51,1111122 
DISL,ioos:station:DISL:KATA:1,2011-11-05T20:30:00Z,30.2583,-88.2131,4.348,26.66,1111122 
DISL,ioos:station:DISL:KATA:1,2011-11-05T21:00:00Z,30.2583,-88.2131,4.368,26.84,1111122 
DISL,ioos:station:DISL:KATA:1,2011-11-05T21:30:00Z,30.2583,-88.2131,4.398,26.91,1111122 
DISL,ioos:station:DISL:KATA:1,2011-11-05T22:00:00Z,30.2583,-88.2131,4.426,26.95,1111122 
DISL,ioos:station:DISL:KATA:1,2011-11-05T22:30:00Z,30.2583,-88.2131,4.45,26.94,1111122 
DISL,ioos:station:DISL:KATA:1,2011-11-05T23:00:00Z,30.2583,-88.2131,4.468,26.94,1111122 
DISL,ioos:station:DISL:KATA:1,2011-11-05T23:30:00Z,30.2583,-88.2131,4.481,26.92,1111122 
DISL,ioos:station:DISL:KATA:1,2011-11-06T00:00:00Z,30.2583,-88.2131,4.485,26.95,1111122 
DISL,ioos:station:DISL:KATA:1,2011-11-06T00:30:00Z,30.2583,-88.2131,4.483,27.05,1111122 
DISL,ioos:station:DISL:KATA:1,2011-11-06T01:00:00Z,30.2583,-88.2131,4.482,27.06,1111122 
DISL,ioos:station:DISL:KATA:1,2011-11-06T01:30:00Z,30.2583,-88.2131,4.471,27.11,1111122 
DISL,ioos:station:DISL:KATA:1,2011-11-06T02:00:00Z,30.2583,-88.2131,4.479,27.13,1111122 
DISL,ioos:station:DISL:KATA:1,2011-11-06T02:30:00Z,30.2583,-88.2131,4.488,27.11,1111122 
DISL,ioos:station:DISL:KATA:1,2011-11-06T03:00:00Z,30.2583,-88.2131,4.499,27.11,1111122 
DISL,ioos:station:DISL:KATA:1,2011-11-06T03:30:00Z,30.2583,-88.2131,4.506,27.14,1111122 
DISL,ioos:station:DISL:KATA:1,2011-11-06T04:00:00Z,30.2583,-88.2131,4.499,27.14,1111122 
DISL,ioos:station:DISL:KATA:1,2011-11-06T04:30:00Z,30.2583,-88.2131,4.488,27.15,1111122 
DISL,ioos:station:DISL:KATA:1,2011-11-06T05:00:00Z,30.2583,-88.2131,4.448,27.15,1111122 
DISL,ioos:station:DISL:KATA:1,2011-11-06T05:30:00Z,30.2583,-88.2131,4.414,27.12,1111122 
DISL,ioos:station:DISL:KATA:1,2011-11-06T06:00:00Z,30.2583,-88.2131,4.373,26.37,1111122 
DISL,ioos:station:DISL:KATA:1,2011-11-06T06:30:00Z,30.2583,-88.2131,4.346,25.92,1111122 
DISL,ioos:station:DISL:KATA:1,2011-11-06T07:00:00Z,30.2583,-88.2131,4.331,25.77,1111122 
DISL,ioos:station:DISL:KATA:1,2011-11-06T07:30:00Z,30.2583,-88.2131,4.318,25.7,1111122 
DISL,ioos:station:DISL:KATA:1,2011-11-06T08:00:00Z,30.2583,-88.2131,4.318,25.6,1111122 
DISL,ioos:station:DISL:KATA:1,2011-11-06T08:30:00Z,30.2583,-88.2131,4.33,25.51,1111122 
DISL,ioos:station:DISL:KATA:1,2011-11-06T09:00:00Z,30.2583,-88.2131,4.334,25.42,1111122 
DISL,ioos:station:DISL:KATA:1,2011-11-06T09:30:00Z,30.2583,-88.2131,4.345,25.26,1111122 
DISL,ioos:station:DISL:KATA:1,2011-11-06T10:00:00Z,30.2583,-88.2131,4.333,25.01,1111122 
DISL,ioos:station:DISL:KATA:1,2011-11-06T10:30:00Z,30.2583,-88.2131,4.319,25.02,1111122 
DISL,ioos:station:DISL:KATA:1,2011-11-06T11:00:00Z,30.2583,-88.2131,4.318,25.1,1111122 
DISL,ioos:station:DISL:KATA:1,2011-11-06T11:30:00Z,30.2583,-88.2131,4.338,25.17,1111122 
DISL,ioos:station:DISL:KATA:1,2011-11-06T12:00:00Z,30.2583,-88.2131,4.34,25.23,1111122 
DISL,ioos:station:DISL:KATA:1,2011-11-06T12:30:00Z,30.2583,-88.2131,4.352,25.34,1111122 
DISL,ioos:station:DISL:KATA:1,2011-11-06T13:00:00Z,30.2583,-88.2131,4.345,25.41,1111122 
DISL,ioos:station:DISL:KATA:1,2011-11-06T13:30:00Z,30.2583,-88.2131,4.344,25.45,1111122 
DISL,ioos:station:DISL:KATA:1,2011-11-06T14:00:00Z,30.2583,-88.2131,4.329,25.49,1111122 